カタログに戻る

GEESAT 2-06

運用中科学VLEO
NORAD 58910·PAYLOAD·🇨🇳 China

打ち上げ Feb 2, 2024 から Xichang Satellite Launch Center

Loading…

次のパス (今後24時間)

TLE

最新Source: Space-Track

元期: Sep 14, 2026, 23:23 UTC

1 58910U 24023F   26257.97441231  .00004357  00000-0  32320-3 0  9999
2 58910  49.9873 229.7284 0005856  46.3669 313.7763 15.04876147143165

AllMySatでGEESAT 2-06をリアルタイム追跡

Download on the App Store